weather.gov     
National Weather Service

Terminal Aerodrome Forecast
NWS Homepage
This page is being discontinued on March 12, 2014.
The same data is available at this site. Please update your bookmarks.
Thank you, and we apologize for the inconvenience.
Please send an email to SR-SRH.Webmaster@noaa.gov with any concerns.


Current Version
Previous Version:    01  02  03  04  05  06  07  08  09  10  11  12  13  14  15  16  17  18  19  20  21  22  23  24  25  26  27  28  29  30  
   31  32  33  34  35  36  37  
[Printable]
491
FTUS43 KJKL 021500 AAA
TAFJKL
TAF AMD
KJKL 021502Z 0215/0312 23005KT P6SM SCT050 BKN250
     FM021600 25004KT P6SM VCTS SCT040CB BKN100
      TEMPO 0220/0222 VRB20G30KT 3SM TSRA BKN020CB OVC030
     FM030000 VRB03KT P6SM SCT050
     FM031000 00000KT 1SM BR BKN002=


U.S. Dept. of Commerce
NOAA National Weather Service
1325 East West Highway
Silver Spring, MD 20910
E-mail: w-nws.webmaster@noaa.gov
Page last modified: May 16, 2007
NATIONAL WEATHER SERVICE: for Safety, for Work, for Fun - FOR LIFE